Wind_Speed
9 6 4 7 9 8 5 2 1 2 2 1 3 1 4 5 4 3 3 4 2 3 2 8 7 7 9 10 12 10 8 2 4 4 2 3 11 21 22 17 22 25 22 20 17 15 13 12 11 11 12 12 13 13 14 14 13 13 14 15 15 14 14 13 12 13 13 13 13 14 15 15 16 17 18 16 15 16 17 17 17 17 16 16 16 16 15 14 16 16 16 17 18 19 20 21 22
7 6 5 7 7 3 1 2 2 2 3 3 3 3 5 2 4 5 5 4 4 5 8 13 13 14 16 13 11 12 11 7 4 4 4 13 16 17 21 21 25 25 22 20 17 16 14 13 12 12 12 12 13 14 14 14 14 13 14 15 15 14 14 14 13 12 13 13 13 13 14 15 15 16 16 15 15 15 16 17 16 17 16 15 15 16 15 13 15 16 16 18 18 19 20 22 24
7 6 5 5 3 1 0 2 2 1 2 3 4 4 5 3 4 2 8 10 8 9 9 11 12 9 11 11 8 9 5 4 8 6 6 16 14 14 23 23 24 24 22 20 17 16 14 13 12 12 12 12 13 13 13 14 14 13 14 15 15 15 14 14 13 12 12 13 12 13 13 14 15 14 14 14 14 14 15 16 16 16 16 15 14 14 14 13 14 16 17 18 19 20 21 23 25
6 6 6 4 2 2 3 2 2 3 3 4 3 5 5 2 7 10 9 9 7 7 7 7 8 4 10 16 8 8 7 3 7 7 6 10 13 20 25 22 23 23 22 20 17 15 14 13 12 13 13 13 13 13 13 13 14 13 13 14 15 15 14 15 13 13 12 12 12 12 13 13 14 14 13 13 13 13 14 16 16 16 15 15 14 14 14 13 13 15 17 19 20 22 23 24 26
5 7 5 2 3 1 1 1 1 4 4 4 2 6 6 3 7 9 8 7 5 6 7 6 6 4 10 10 3 5 6 4 6 8 8 8 17 25 23 22 24 23 22 20 17 15 14 13 13 13 13 13 13 12 12 12 13 13 13 13 14 14 15 15 14 13 12 12 11 11 12 12 13 14 13 13 13 14 14 15 16 16 15 14 14 14 14 13 13 16 17 19 22 23 24 24 24
7 7 2 2 1 1 1 1 2 3 5 4 2 6 7 5 3 9 9 7 5 8 11 9 8 8 8 5 4 4 6 7 5 7 11 14 22 25 22 23 24 23 22 19 17 16 14 13 13 14 13 13 13 12 12 11 12 13 13 13 14 14 14 15 14 13 12 12 11 11 11 12 13 14 13 13 14 14 14 14 14 14 14 13 13 13 13 12 13 16 16 18 21 23 23 22 21
8 6 2 2 2 0 2 3 4 4 4 5 4 6 10 9 2 11 11 9 7 8 12 10 11 12 6 3 4 5 8 12 8 10 16 20 24 23 23 24 24 23 21 19 16 15 14 13 15 14 13 13 12 12 11 11 11 12 13 13 15 15 15 15 14 13 12 11 11 11 11 12 12 14 13 13 13 14 14 13 12 11 12 12 12 12 12 11 12 15 16 16 19 21 20 19 19
6 2 0 3 1 1 2 3 4 3 4 4 5 8 11 9 4 8 11 10 5 5 10 10 12 14 6 5 4 4 11 15 14 17 21 23 23 23 23 25 24 22 20 18 16 16 14 14 15 15 14 13 12 11 10 10 11 12 12 12 14 15 15 15 14 13 12 12 11 11 11 12 12 14 14 13 13 12 13 13 12 10 11 11 11 11 11 11 11 14 15 15 16 18 18 16 15
3 1 1 2 0 2 1 4 4 4 5 5 7 9 9 10 8 7 9 8 6 7 8 7 12 13 6 9 7 2 11 17 21 21 22 23 23 22 23 24 24 22 20 18 17 16 15 15 16 15 15 13 12 11 10 10 11 13 12 12 14 16 17 16 15 13 13 12 11 11 11 12 13 14 14 14 13 12 11 12 12 10 10 10 9 10 10 10 10 13 15 14 14 15 16 15 14
2 1 0 1 1 2 3 4 4 4 6 6 9 10 8 10 8 8 12 10 10 9 5 7 13 14 11 10 5 2 11 19 22 19 19 21 21 22 22 23 22 22 20 19 18 16 15 14 14 15 15 14 13 12 11 11 12 12 13 14 14 16 18 16 15 13 13 12 11 11 11 12 13 14 14 13 13 12 11 11 11 10 10 9 9 9 9 9 9 12 14 13 13 12 14 14 14
2 2 1 1 1 1 3 3 5 5 7 6 8 12 10 8 3 9 15 12 10 12 9 11 14 14 13 8 3 6 16 20 21 19 17 19 20 21 21 20 19 19 19 19 18 16 15 14 13 14 14 14 13 12 12 12 13 13 14 14 14 16 17 16 15 13 13 12 11 11 11 11 13 14 14 13 12 12 11 10 10 10 10 9 9 8 9 9 8 12 14 13 13 11 12 14 14
1 3 3 2 1 3 4 3 5 6 7 6 8 11 10 8 7 13 17 13 11 14 10 10 11 12 13 6 3 9 16 19 20 20 17 17 17 19 19 18 16 16 18 18 18 16 15 13 13 13 13 13 12 12 11 12 13 13 13 13 15 17 17 16 14 13 13 12 12 11 11 12 13 13 13 13 13 12 11 10 10 10 9 9 9 8 8 8 8 11 13 13 12 11 11 13 13
2 2 4 1 3 3 3 3 5 5 7 6 7 9 7 5 10 14 15 14 14 12 7 11 14 11 11 6 5 8 11 17 22 21 18 17 16 17 17 16 14 15 17 17 17 15 14 13 12 13 13 12 12 12 12 12 13 13 13 13 15 17 17 16 14 14 13 12 12 11 11 12 12 13 13 13 13 12 12 10 10 10 9 8 8 7 6 7 7 9 12 12 12 11 11 12 12
4 2 4 2 2 1 3 3 5 4 6 8 7 8 3 3 9 11 15 14 8 8 8 13 16 13 11 8 5 4 9 19 24 23 20 18 16 16 16 15 14 15 17 17 16 14 13 12 11 12 12 12 12 12 12 12 13 12 13 13 14 16 16 15 14 14 13 12 12 11 11 11 12 12 13 12 12 12 11 10 10 9 9 8 7 6 6 6 7 8 11 12 12 12 11 11 11
5 2 4 1 3 2 3 3 5 4 6 9 6 0 6 6 9 10 13 14 4 5 10 10 10 11 11 11 7 7 14 24 25 25 22 20 18 17 16 15 14 15 16 16 15 14 13 12 11 11 11 11 11 12 12 12 13 12 12 13 13 14 15 15 15 14 13 12 11 11 11 11 12 12 12 11 11 11 11 11 10 9 9 8 8 7 7 7 7 8 10 12 12 11 12 11 10
4 1 2 1 2 2 3 3 4 4 6 7 5 6 12 6 8 8 4 13 9 4 5 4 2 7 14 12 13 19 24 28 27 26 23 21 20 19 18 17 16 15 15 15 14 14 13 12 12 11 11 11 11 11 10 11 13 12 11 12 13 14 15 15 15 15 13 12 12 12 12 11 12 11 11 11 11 11 10 11 10 9 9 9 8 8 8 8 9 9 11 13 12 11 11 11 10
2 1 1 1 3 3 4 4 2 3 7 7 5 6 14 7 8 8 5 12 13 5 5 1 2 9 13 10 23 31 31 31 29 27 24 21 20 19 18 17 17 16 15 15 15 14 13 13 12 12 11 10 11 11 10 10 11 12 11 11 11 11 13 14 15 15 14 13 13 12 12 12 12 11 11 11 10 10 9 10 9 8 9 9 8 8 8 9 10 10 12 13 12 11 10 10 9
2 2 2 3 4 5 4 4 4 4 9 8 4 3 12 12 7 7 8 11 11 9 8 8 10 10 12 18 31 34 32 33 30 28 23 19 19 18 17 17 18 17 15 14 14 14 14 14 12 11 11 11 12 11 11 10 10 12 12 10 9 9 11 12 13 15 14 13 13 12 12 12 11 12 11 10 10 9 9 9 7 7 8 9 8 7 8 9 10 11 13 13 12 11 10 9 9
2 2 2 4 5 4 4 4 6 5 9 8 2 2 6 12 7 5 7 9 12 12 8 12 15 12 15 21 28 30 31 31 29 27 22 19 19 17 17 17 18 17 16 15 15 15 15 14 12 12 11 11 13 13 13 12 11 11 12 11 9 9 11 11 12 14 14 13 13 12 12 12 11 11 10 9 9 9 8 8 6 7 8 8 8 7 7 9 10 12 13 13 12 12 11 9 9
2 3 2 5 3 2 3 4 7 5 7 7 2 1 4 7 4 5 9 12 13 13 10 12 15 14 14 15 21 27 28 26 26 26 21 20 20 20 20 19 20 20 18 16 16 15 15 14 13 11 10 11 13 13 13 13 13 12 12 12 10 10 10 11 11 12 12 12 12 13 13 12 11 11 10 10 10 10 9 8 6 7 8 8 7 7 7 9 11 12 12 12 12 12 12 10 9
1 4 4 6 2 3 6 6 8 6 5 6 3 5 5 3 4 8 12 10 8 11 15 18 19 18 17 14 16 21 21 20 22 22 20 19 19 20 21 21 21 20 20 18 16 16 15 14 13 12 11 12 12 13 14 15 15 14 14 14 13 13 12 12 11 11 12 12 12 13 13 12 12 12 11 10 11 11 11 9 8 8 9 8 8 7 8 10 12 13 12 12 13 11 11 9 8
2 4 5 7 5 5 8 7 8 5 6 8 7 6 2 2 5 7 11 9 6 9 14 21 23 21 20 16 14 15 15 14 15 18 18 18 18 18 20 21 20 18 18 18 16 16 15 14 13 13 12 11 11 12 14 15 16 15 15 15 15 15 14 13 11 11 12 13 13 14 13 12 11 12 11 10 10 11 11 11 10 10 10 8 8 8 9 10 12 13 13 13 12 11 10 9 7
3 6 6 7 7 6 4 4 6 1 6 5 4 4 3 5 6 1 6 6 8 10 12 18 21 21 23 19 14 13 13 12 13 16 18 19 19 18 20 20 19 18 16 15 15 15 15 15 14 13 12 10 10 11 13 16 17 16 16 15 16 15 14 13 11 11 12 13 14 14 13 12 12 12 11 11 11 11 11 12 12 11 11 9 8 8 9 10 11 13 13 13 13 12 10 8 7
5 7 9 8 8 8 5 4 5 1 7 1 1 4 5 6 4 1 2 1 6 12 10 12 15 17 19 15 12 12 12 12 14 18 21 22 22 21 21 20 19 17 16 15 14 16 16 15 15 13 11 10 10 10 11 14 17 17 17 16 16 16 15 13 12 11 11 12 13 14 13 12 12 12 11 11 12 12 12 14 14 13 12 10 9 9 10 10 11 12 13 13 14 13 11 9 7
6 9 10 7 7 8 7 6 3 2 4 1 5 6 3 3 5 2 2 4 12 15 12 12 12 13 12 11 11 10 10 12 14 18 20 22 24 23 21 21 19 17 16 15 14 15 16 15 15 13 12 11 10 10 10 12 15 15 15 15 15 15 15 13 12 11 11 12 13 13 13 12 12 11 11 11 12 13 14 15 16 15 14 12 11 10 10 10 11 12 13 14 14 14 13 12 9
7 11 10 6 5 6 7 6 3 2 2 4 7 4 4 2 7 4 2 7 15 17 16 14 14 13 10 9 10 11 11 12 14 17 19 23 26 24 22 21 20 18 16 14 13 13 12 13 13 13 12 13 13 13 13 12 12 12 13 13 14 15 14 12 11 10 11 12 12 12 11 11 12 11 10 10 12 13 14 16 17 17 16 15 13 12 12 11 11 12 12 14 14 14 14 13 12
6 11 10 7 5 5 5 4 4 3 2 5 5 3 6 3 4 3 4 7 16 16 16 15 15 14 13 11 10 12 13 14 18 20 20 21 23 24 22 21 19 17 16 14 13 12 11 10 10 12 13 14 14 15 15 14 12 11 10 11 11 12 13 11 10 9 10 10 11 10 9 10 10 10 8 8 10 11 12 15 17 18 18 16 15 13 12 13 13 12 12 13 14 14 14 15 15
9 7 6 4 1 1 3 5 4 3 1 4 7 1 6 6 4 8 7 8 16 17 15 14 14 13 13 12 10 10 10 15 22 22 19 19 22 24 22 21 20 17 15 14 13 12 11 10 10 13 15 15 15 15 15 15 14 13 12 10 8 7 8 11 11 9 9 9 9 8 8 8 8 8 8 7 8 8 10 12 15 19 19 17 15 14 14 14 15 15 14 14 15 15 15 17 17
8 2 3 3 6 3 2 2 4 3 1 3 7 2 6 5 2 10 11 9 14 17 15 13 12 11 11 10 8 8 10 15 19 20 21 23 25 26 24 21 20 17 15 14 12 11 10 10 12 14 16 15 15 16 16 16 15 14 12 10 9 7 6 7 10 9 9 9 8 7 7 7 5 6 7 8 8 9 10 11 13 18 21 20 16 15 15 15 16 16 16 15 16 17 16 17 18
5 2 1 2 7 4 5 2 2 4 2 5 7 1 5 6 7 6 10 9 10 14 14 11 10 9 9 9 8 8 10 13 15 19 25 26 26 26 24 21 20 18 16 14 13 12 12 11 12 14 15 14 14 16 17 16 15 13 10 8 8 7 8 7 7 7 8 8 7 7 6 5 5 4 5 7 9 11 11 11 12 14 19 22 19 17 15 15 17 18 18 17 17 16 17 17 17
3 3 3 3 3 5 6 2 4 3 2 6 9 2 7 7 9 4 8 11 11 13 13 11 11 10 9 8 9 9 9 12 17 24 27 29 28 26 24 22 20 19 18 16 14 13 12 12 12 13 14 13 14 17 18 16 13 12 10 8 9 8 7 7 6 7 7 6 5 5 4 5 5 4 5 6 8 10 10 11 11 11 13 18 21 20 18 16 18 20 19 17 17 16 16 16 16
3 1 3 3 1 5 7 2 7 6 2 4 8 3 7 6 9 8 5 12 12 12 12 11 12 11 10 8 8 9 8 11 18 24 28 30 29 26 26 25 22 20 19 17 15 14 13 12 13 13 14 14 14 14 14 12 12 12 10 9 10 9 6 5 5 7 8 7 7 6 4 4 4 4 5 6 8 9 10 11 12 12 11 14 18 20 21 20 20 22 20 16 16 16 13 12 13
4 1 2 3 2 4 6 5 7 9 2 2 7 4 3 4 7 8 3 11 14 12 11 11 12 11 10 8 8 9 8 9 12 18 26 31 30 28 28 27 24 22 21 20 18 16 15 13 13 14 14 14 13 13 11 11 12 13 12 11 11 9 5 5 7 9 8 7 7 7 6 4 4 3 4 5 6 6 7 8 11 13 14 13 15 17 20 21 20 22 21 18 17 15 12 9 10
4 3 1 3 2 2 3 6 7 7 7 6 8 6 5 5 6 7 6 11 14 13 13 12 10 10 9 8 9 10 10 10 10 16 25 31 31 30 29 29 27 24 23 22 20 18 17 15 14 14 14 14 14 14 14 14 14 14 12 10 10 8 7 8 10 12 11 8 7 7 6 5 5 5 4 3 3 5 5 5 6 9 12 12 12 14 16 18 18 19 20 19 19 16 12 7 6
2 1 1 3 2 1 3 6 5 7 10 9 8 7 8 7 6 6 5 7 11 10 12 11 10 11 10 9 10 10 11 11 12 20 28 31 33 32 31 31 29 27 25 23 22 20 19 18 18 18 16 17 17 16 15 15 14 14 12 10 10 10 9 10 13 13 11 7 5 6 6 6 6 6 5 3 1 2 4 5 5 6 9 10 10 12 14 15 16 16 19 19 19 17 12 6 3
4 3 4 2 3 2 4 6 5 5 8 7 9 9 9 7 6 5 5 1 7 9 10 10 10 12 10 9 10 11 12 12 15 24 30 31 34 34 32 32 31 28 26 25 24 23 23 24 22 21 21 20 19 16 15 13 13 15 13 11 10 10 7 7 10 10 8 5 3 2 3 5 5 4 4 2 1 1 3 1 2 3 6 9 11 14 16 15 14 15 17 18 18 17 14 9 6
4 1 2 2 1 3 5 4 8 1 5 0 2 4 6 6 6 6 6 4 1 6 8 10 11 11 11 11 12 13 13 13 16 23 27 29 33 33 31 32 31 29 27 27 27 25 26 26 24 24 24 22 19 16 14 13 14 16 15 12 10 9 6 5 6 6 4 3 2 2 2 3 4 4 4 3 2 2 3 4 4 3 0 5 8 10 14 14 11 11 13 13 13 16 18 14 9
4 3 1 3 0 3 6 3 7 4 5 3 4 3 6 6 5 7 5 2 4 6 6 9 12 12 10 12 14 13 12 9 12 16 20 24 28 29 30 32 33 32 31 30 29 28 28 26 24 25 25 23 20 16 14 15 16 16 15 13 11 9 6 5 6 6 4 3 3 2 3 3 4 4 4 2 1 1 2 2 2 4 4 2 3 2 6 7 7 8 10 9 7 12 19 18 12
4 3 1 4 2 2 6 5 7 5 4 2 3 4 5 7 5 5 4 4 6 7 7 7 10 12 10 11 13 12 10 8 9 11 15 22 27 28 29 31 34 34 34 33 31 30 29 26 25 25 25 24 20 16 16 16 16 15 14 13 13 10 7 6 7 6 6 6 5 3 2 2 2 3 3 1 1 3 4 3 2 3 5 4 4 5 5 4 4 6 8 9 8 10 15 17 14
3 3 2 3 3 1 2 5 7 5 2 2 2 4 5 6 6 4 5 6 5 6 7 6 7 11 12 13 13 13 12 10 11 12 13 19 24 25 27 30 32 32 32 33 32 32 30 28 26 25 24 23 20 17 16 16 16 15 13 12 12 11 9 7 7 6 5 5 5 3 0 2 2 3 4 2 3 4 5 6 6 5 5 4 3 5 6 7 8 8 8 8 8 10 12 14 15
2 2 4 3 5 2 4 4 5 6 5 1 4 6 5 4 4 6 4 1 2 5 6 7 7 9 9 9 10 11 12 13 15 14 12 15 20 24 28 30 30 31 32 33 34 34 32 30 28 25 24 22 19 17 18 19 18 16 15 13 12 11 11 9 8 8 6 4 4 2 0 1 3 2 4 4 2 3 3 4 5 5 4 1 1 2 4 6 7 9 9 7 8 9 10 12 14
4 3 6 6 6 5 3 1 4 5 5 4 2 2 5 5 3 6 6 4 4 4 5 10 11 7 6 6 8 10 10 12 15 17 15 16 21 25 26 27 28 30 33 35 36 35 34 32 29 25 24 21 19 19 21 22 20 18 16 15 14 14 14 12 11 10 8 7 5 3 3 4 7 7 5 5 3 2 1 1 1 2 1 1 2 2 3 4 4 6 8 8 8 10 11 12 14
2 4 7 6 5 4 2 1 3 2 2 4 2 3 4 6 4 7 6 5 8 6 5 11 12 6 7 8 10 10 9 10 12 15 16 17 21 22 21 25 29 31 34 36 36 35 34 32 30 26 24 22 20 21 23 22 20 18 16 16 16 16 16 14 12 9 8 8 6 4 4 5 7 8 7 4 3 4 3 3 2 2 2 2 3 4 4 4 4 5 6 7 8 8 9 11 14
3 6 6 4 3 3 2 4 4 3 3 4 4 3 3 4 5 7 5 5 8 9 7 9 10 8 9 10 11 10 10 11 12 13 15 17 21 23 24 28 32 33 34 34 35 35 34 33 31 28 25 24 22 22 23 21 19 17 17 17 18 17 16 14 12 10 9 8 7 6 5 4 5 6 6 6 4 3 3 1 1 2 2 3 4 4 5 5 5 6 7 7 7 8 8 8 11
6 7 5 4 4 5 4 5 3 1 2 4 6 1 1 5 5 5 3 3 7 10 10 9 10 10 10 10 10 9 10 12 14 16 17 18 22 27 30 32 33 33 34 36 37 36 34 34 33 29 27 26 24 23 22 20 19 18 17 19 19 18 16 14 13 12 11 10 8 8 7 5 4 3 4 4 5 5 6 5 4 3 2 1 3 4 5 7 7 8 9 10 9 9 9 9 10
6 4 3 1 3 3 3 5 3 3 4 3 7 1 0 5 6 4 2 3 6 8 9 9 10 11 11 10 10 9 8 9 12 16 17 20 26 30 31 31 32 33 34 36 36 34 34 34 33 32 30 28 27 25 23 21 19 19 19 20 20 19 17 16 15 13 12 10 9 9 8 6 5 3 2 2 2 3 4 4 4 4 4 3 2 3 4 5 6 8 9 10 11 11 11 11 12
2 3 2 4 5 4 3 3 4 4 2 6 7 3 3 3 5 5 3 4 5 6 8 9 8 10 11 10 9 10 8 8 10 13 15 22 28 29 28 29 31 32 32 32 31 32 34 34 34 34 32 31 29 26 25 23 21 20 21 21 20 20 20 19 18 15 13 12 10 10 8 8 8 6 4 3 2 1 0 0 1 2 3 3 3 4 5 6 7 8 10 11 12 12 13 13 13
4 3 2 2 4 5 5 4 4 2 4 7 5 3 5 2 5 6 5 6 6 5 8 11 7 9 10 9 9 10 9 8 10 11 13 16 19 20 23 26 28 30 30 30 32 33 34 35 35 35 34 33 31 28 27 26 24 23 23 22 20 21 22 22 20 17 16 14 12 11 9 10 9 8 8 6 4 3 3 3 3 4 4 5 5 6 7 8 9 11 12 13 14 14 14 14 14
6 4 4 4 2 4 3 4 2 1 5 6 3 2 4 4 8 8 8 8 8 6 7 10 7 8 9 9 10 10 9 8 9 10 11 12 12 15 21 25 27 30 32 34 35 35 35 36 36 36 35 35 33 31 29 28 27 25 24 23 23 21 22 23 21 19 17 16 15 13 11 12 11 10 11 9 7 6 5 5 5 6 7 8 8 8 9 11 12 13 15 15 16 16 15 15 16
4 4 3 4 2 2 1 4 2 2 5 6 4 2 2 4 5 7 7 8 8 8 7 7 6 6 8 9 8 8 9 8 8 9 11 12 12 17 23 27 29 32 36 37 37 37 36 36 37 37 37 37 35 33 32 30 29 27 26 25 25 23 22 23 22 20 19 18 18 15 14 13 12 12 12 10 8 8 8 8 7 8 9 9 10 11 13 14 14 14 15 15 15 15 15 16 16
4 5 5 4 4 3 3 3 3 4 4 4 3 2 3 2 4 6 4 5 6 5 6 7 6 4 3 4 2 4 7 7 8 9 11 13 16 21 26 28 32 35 37 37 36 37 37 36 38 37 36 37 37 35 34 33 30 28 27 26 26 25 23 23 23 21 19 20 20 17 15 15 14 13 12 11 10 9 9 9 9 9 9 10 11 13 13 13 13 14 15 16 16 15 15 16 17
3 3 5 2 4 5 3 3 5 4 1 3 2 2 4 4 5 7 5 7 10 11 11 11 11 9 8 8 7 2 1 2 5 8 11 13 18 24 27 29 32 34 34 35 35 36 37 38 38 38 37 37 37 37 36 34 32 29 28 27 27 26 24 24 24 22 21 21 20 19 17 16 15 14 13 12 12 11 10 10 11 11 11 11 12 11 11 11 12 13 14 15 15 16 16 17 18
2 2 3 3 3 6 3 2 0 3 1 4 1 2 5 3 5 6 8 9 11 12 11 11 11 12 12 10 9 9 7 5 1 2 6 10 15 21 25 28 31 30 31 34 36 38 40 39 38 37 36 36 37 37 36 35 33 31 29 28 27 27 26 25 25 23 22 21 21 20 18 17 17 16 15 14 14 13 12 12 12 12 11 11 10 10 10 11 12 12 13 13 14 16 18 18 19
2 1 5 3 2 4 2 1 3 3 2 4 2 3 5 2 3 5 9 10 9 10 10 11 12 13 11 9 10 11 10 9 8 5 2 6 10 18 23 27 29 32 34 37 38 40 40 40 40 39 36 36 37 37 37 36 34 32 31 30 29 28 28 27 26 25 23 22 22 21 19 19 19 19 17 16 14 14 13 12 12 11 11 10 9 9 11 12 13 12 12 12 13 14 16 17 17
4 1 3 0 1 1 1 1 1 1 2 4 4 4 3 2 3 2 7 7 7 9 10 11 11 11 10 9 10 12 11 9 8 7 5 2 4 11 19 25 28 29 31 34 36 37 37 38 39 40 39 38 37 37 37 36 35 33 32 30 30 30 29 28 26 25 23 23 23 22 20 20 20 19 17 16 14 13 12 11 11 11 11 10 10 11 11 12 13 13 12 13 14 14 15 17 17
4 3 3 2 2 3 3 2 3 3 3 2 3 4 3 4 5 3 5 4 6 7 8 8 8 9 9 8 9 10 9 7 5 6 6 5 3 5 10 15 22 27 30 31 33 34 36 36 37 38 38 36 36 36 37 36 35 34 33 32 32 31 30 29 27 25 25 24 23 22 21 20 19 17 16 14 13 11 11 10 10 10 11 11 11 11 12 12 12 13 14 14 15 15 16 18 19
4 4 5 4 2 0 0 1 2 4 3 3 1 3 4 5 4 6 7 6 6 7 7 6 6 7 7 7 8 9 8 7 6 6 7 6 5 3 5 9 10 15 21 26 30 32 32 33 34 36 35 33 34 36 37 37 36 35 34 34 33 32 30 29 27 26 25 24 23 23 22 20 18 16 14 13 12 11 10 10 10 10 11 11 12 12 11 11 12 13 13 13 13 14 15 17 18
2 2 3 3 3 1 1 3 2 2 3 4 4 3 6 6 3 5 7 7 6 6 7 6 4 5 6 6 7 7 7 8 7 7 7 7 8 6 2 5 6 8 13 18 24 27 28 30 33 34 35 35 36 37 38 38 37 36 36 35 34 32 31 29 28 26 25 25 24 23 21 20 17 15 13 12 12 11 10 9 10 11 12 13 13 13 12 11 12 12 13 12 13 14 15 16 17
Wind_Direction
307 297 294 315 320 329 338 77 62 319 84 278 261 236 258 217 227 272 184 211 37 13 50 87 91 103 103 108 115 90 53 90 160 143 174 171 150 166 178 189 177 167 166 164 166 165 160 158 154 148 141 141 145 147 149 150 153 156 158 160 160 158 156 152 147 140 137 133 125 121 122 121 122 123 123 122 120 119 119 118 117 113 111 110 107 105 104 108 111 106 101 100 109 119 119 120 120
304 295 303 319 322 340 278 99 92 314 42 302 278 195 253 242 240 267 183 159 109 135 100 94 93 93 106 116 107 77 46 21 88 108 106 129 134 159 177 182 170 165 166 164 169 166 160 158 154 150 143 141 146 147 149 152 155 159 160 161 162 161 160 157 150 145 141 137 129 124 124 123 125 125 126 124 120 121 122 121 118 115 112 110 107 106 105 107 113 109 98 99 110 119 121 122 123
306 313 327 338 340 66 340 39 100 151 95 254 281 230 257 271 214 87 111 119 131 144 109 100 91 88 101 87 59 72 77 29 75 81 111 135 134 155 168 169 165 166 165 165 170 167 160 155 153 149 141 140 143 148 150 153 157 161 162 164 165 164 164 161 154 148 145 140 133 128 126 125 128 129 126 123 120 123 124 124 121 118 115 111 108 106 106 106 114 112 99 101 114 122 124 126 126
315 332 336 1 35 30 47 69 153 139 161 230 271 268 291 281 145 106 109 124 141 137 106 95 75 35 80 87 78 83 107 86 85 97 119 144 150 157 162 164 165 166 165 169 172 167 158 151 150 145 140 140 140 146 152 156 161 163 165 166 167 167 167 164 157 151 148 144 137 133 130 127 131 132 128 121 118 123 125 127 123 121 119 115 113 110 108 106 113 113 102 104 119 126 128 130 129
329 339 329 40 80 19 83 126 182 142 197 206 207 284 315 37 107 114 127 126 137 116 96 86 79 50 67 85 97 94 119 106 91 109 109 132 152 157 161 163 164 165 167 171 171 164 153 146 144 141 138 138 140 145 152 157 164 168 169 168 167 167 168 167 161 154 150 146 141 137 134 130 132 134 131 122 117 120 125 128 125 125 125 121 117 114 110 110 114 116 107 108 123 129 130 133 131
339 354 15 112 120 197 110 213 243 215 225 189 188 286 300 326 75 117 114 89 68 87 89 83 100 98 69 52 41 73 133 125 111 119 121 138 152 157 161 163 164 165 168 170 169 159 147 143 140 138 137 137 139 142 151 159 167 172 173 171 166 165 166 168 163 154 151 147 143 139 137 134 134 136 133 126 122 121 126 127 127 129 127 122 120 117 113 114 116 118 113 110 125 133 132 134 133
345 358 58 67 329 50 110 212 233 250 236 190 201 257 275 289 162 123 111 92 69 79 90 97 114 101 70 67 47 30 98 122 128 131 135 144 153 157 161 164 163 164 169 168 163 154 145 143 141 138 137 136 137 139 148 160 168 172 178 175 165 164 165 166 162 154 151 148 143 142 142 138 137 138 136 131 127 124 128 129 129 129 122 119 120 120 118 119 119 119 117 112 123 137 138 135 135
353 352 59 85 355 6 123 245 237 227 236 211 220 237 257 267 208 139 125 120 113 103 105 121 111 88 54 73 83 29 83 114 127 134 138 143 151 155 161 164 163 164 167 164 156 151 146 146 145 139 136 132 130 134 141 151 164 168 177 177 163 162 165 166 163 156 152 149 146 146 144 140 140 140 139 137 134 128 129 132 132 128 121 119 119 118 118 121 122 121 122 115 122 142 148 145 143
21 97 354 94 117 317 261 280 266 242 255 249 252 246 251 262 243 168 127 114 121 115 121 139 101 96 105 84 93 72 87 113 124 132 139 143 151 154 162 165 165 164 162 162 158 155 148 149 148 141 138 133 129 128 133 142 155 163 171 174 166 163 165 167 164 159 154 151 151 148 147 143 143 144 143 142 139 134 134 136 134 130 125 122 116 116 120 122 126 126 125 120 122 142 152 154 151
39 160 135 112 106 304 297 288 267 265 261 258 267 259 249 254 240 155 124 122 127 113 121 108 90 110 123 99 99 133 118 125 125 130 141 147 153 155 160 166 168 164 162 163 160 156 147 148 149 143 137 133 134 131 133 139 147 158 165 171 170 165 165 167 165 161 156 154 154 151 151 147 145 147 146 146 143 140 141 142 138 133 128 124 117 117 123 125 129 130 130 127 128 142 151 155 154
20 301 139 100 58 257 265 263 262 270 271 283 279 266 251 236 189 126 125 133 135 124 132 99 95 114 109 104 105 137 136 132 130 135 146 152 155 158 159 163 169 167 165 163 159 157 148 146 148 144 137 134 138 136 136 136 145 155 161 167 169 167 165 167 166 162 159 155 155 155 154 151 150 150 149 149 147 145 145 147 142 136 131 124 117 116 123 128 131 132 135 133 132 144 150 153 155
57 299 89 107 194 212 228 239 274 283 282 284 265 266 253 221 147 137 136 138 138 134 144 115 123 126 106 112 125 140 138 132 137 142 151 152 152 155 156 159 165 169 168 165 161 158 150 147 147 142 139 138 137 137 136 132 141 151 157 162 165 166 165 167 166 163 161 156 155 157 157 156 154 153 151 151 149 148 149 150 148 140 133 127 119 116 123 131 132 131 138 138 137 147 152 152 154
161 227 99 150 204 198 260 266 281 296 289 265 249 263 249 200 145 145 134 134 142 140 152 134 138 123 108 128 135 146 138 137 142 143 147 140 138 143 148 153 157 164 167 167 163 158 152 150 147 141 140 142 138 135 133 130 135 143 151 158 162 165 166 168 167 165 162 157 156 157 160 161 157 154 153 152 150 151 152 153 152 143 136 133 123 117 127 136 134 132 140 143 142 150 157 157 156
186 201 123 222 267 221 272 279 280 291 282 266 259 265 258 107 128 137 128 132 146 143 137 133 131 106 110 129 133 162 144 144 142 137 135 126 129 133 139 148 150 157 163 167 165 160 155 152 148 142 143 145 141 138 134 132 134 141 150 158 164 168 168 171 169 166 164 158 159 161 164 163 160 158 156 155 152 152 153 153 153 146 141 145 134 125 140 142 140 140 143 148 148 153 162 164 163
183 214 118 190 308 313 265 241 269 267 273 280 278 239 73 71 111 116 130 129 107 124 121 130 124 103 139 153 155 176 152 148 140 133 130 123 123 121 126 136 141 152 160 167 168 166 160 156 154 147 149 149 146 143 139 138 137 141 152 161 169 173 171 173 171 167 165 162 163 166 168 167 165 164 159 157 154 154 155 154 154 147 150 159 149 140 149 148 147 149 148 154 157 159 166 172 172
175 177 90 166 266 295 265 242 281 273 272 288 290 99 87 46 78 83 123 121 115 120 106 163 166 123 159 164 151 156 150 146 140 134 131 128 126 122 122 123 129 144 158 168 172 173 168 163 161 155 155 153 152 149 145 145 142 144 155 165 173 175 171 172 172 169 166 165 168 171 171 170 169 168 164 160 158 159 160 158 153 146 158 169 160 150 154 154 152 153 153 157 162 164 166 175 178
127 118 174 245 248 243 250 256 301 294 293 305 319 86 102 68 62 75 48 93 116 110 57 68 65 123 149 144 141 146 146 144 140 137 134 133 134 131 130 127 129 135 148 165 173 174 170 168 164 159 159 157 158 156 155 155 151 151 156 166 171 171 171 174 173 169 168 168 172 176 176 174 170 169 168 164 163 164 166 163 150 144 161 171 166 158 157 159 156 153 154 158 161 164 164 171 177
106 128 194 223 242 229 216 239 272 301 303 302 322 33 109 107 100 101 66 70 94 87 75 83 69 85 105 119 135 140 142 142 141 140 136 137 138 134 134 135 135 135 141 150 162 168 166 165 161 159 160 163 166 165 166 167 165 160 156 162 160 156 166 177 178 171 168 171 176 180 181 177 173 172 170 167 167 168 171 168 151 145 161 170 169 163 162 164 161 156 156 160 163 166 168 172 176
143 164 183 221 226 226 204 248 286 290 285 280 274 316 114 126 141 123 104 101 99 91 86 96 90 86 98 118 133 138 141 141 142 141 139 142 141 136 133 133 131 133 140 143 149 154 157 157 152 154 156 161 168 170 172 173 173 166 158 156 149 148 159 169 176 174 170 174 179 183 183 179 178 178 176 173 171 170 173 173 159 150 160 167 168 164 165 166 163 159 160 164 167 172 176 176 179
203 180 211 240 231 285 255 266 286 271 284 300 324 34 112 147 156 113 124 124 116 121 125 114 115 122 126 134 138 140 142 140 143 143 143 146 143 141 136 132 127 124 129 138 146 146 149 151 148 148 150 158 165 170 177 178 174 167 159 154 151 155 161 164 171 175 175 180 181 182 184 183 183 182 180 179 175 171 171 174 168 159 164 166 167 165 164 167 165 163 164 168 173 179 179 174 177
238 180 204 233 230 292 269 270 281 282 343 348 349 53 99 154 116 121 129 119 126 147 149 140 139 143 145 150 146 141 138 139 144 143 144 147 146 145 140 135 129 124 122 125 138 148 149 147 149 149 152 161 166 172 179 180 176 171 162 158 160 164 169 172 175 176 175 181 184 185 186 185 184 182 182 183 181 177 172 174 173 171 174 170 169 167 164 167 167 168 172 175 179 183 180 169 169
271 247 226 227 223 254 258 257 263 274 22 15 8 32 77 79 76 128 135 133 169 171 160 148 147 152 153 155 149 138 135 142 147 146 148 150 152 150 143 137 131 129 127 122 129 144 153 151 151 153 154 159 166 173 176 177 176 174 167 164 167 169 175 175 174 177 177 182 186 186 187 186 186 186 189 190 189 188 183 183 182 182 185 179 174 170 164 166 170 173 177 179 182 182 181 170 163
237 270 256 238 227 238 256 256 257 236 71 32 359 0 347 59 62 128 131 159 186 167 163 153 150 153 150 148 144 140 145 152 152 152 155 154 155 152 146 142 136 133 128 124 126 134 147 152 152 151 152 154 161 171 173 174 176 174 169 169 174 176 180 178 173 177 180 186 187 186 187 189 192 194 198 200 198 198 196 194 189 187 190 189 183 176 166 165 172 178 181 182 183 182 182 175 162
207 253 260 246 229 231 245 249 262 81 93 112 62 36 8 67 88 345 57 179 161 143 147 142 138 138 139 139 137 142 147 149 152 155 157 157 155 151 147 144 140 134 122 119 125 126 128 137 145 146 147 153 160 167 171 173 177 177 172 174 180 183 186 185 181 178 181 187 188 190 192 192 196 201 206 211 210 206 203 199 194 191 192 195 192 184 177 174 178 184 187 188 192 195 196 194 180
219 235 249 246 229 219 216 216 233 66 89 59 51 41 336 74 100 72 33 114 123 126 127 120 120 125 132 132 129 134 137 141 145 146 149 152 151 147 145 144 140 135 124 120 126 127 120 120 130 135 140 145 148 154 161 169 179 183 180 178 183 187 192 194 191 187 187 190 190 194 197 198 201 207 213 216 215 210 204 199 198 195 192 196 200 194 189 192 195 195 196 198 202 209 214 215 212
222 227 239 246 233 197 193 190 163 133 115 68 50 359 299 68 91 57 300 135 123 126 130 130 133 137 140 134 133 137 139 143 143 140 139 144 146 143 142 144 141 133 128 127 132 134 130 124 121 127 137 138 134 135 139 149 166 181 185 186 189 194 198 199 197 196 196 199 198 196 201 207 209 214 218 218 215 210 205 202 200 197 193 196 202 199 197 206 212 213 214 211 211 217 224 229 232
246 235 227 230 222 194 185 163 167 175 136 98 94 295 296 329 94 84 268 152 128 128 135 143 145 149 156 149 148 149 148 152 147 138 135 139 142 142 142 141 138 133 133 135 136 138 142 138 123 125 139 141 136 132 129 129 136 147 161 174 186 199 207 205 199 198 201 206 207 203 206 211 212 213 212 210 211 209 205 203 201 198 196 198 204 204 202 211 216 223 234 232 229 230 239 246 248
285 244 199 226 264 155 153 136 168 156 115 126 120 216 306 344 92 148 200 168 137 136 144 156 155 159 164 154 152 153 150 152 146 139 139 144 145 143 142 141 138 136 140 140 140 142 143 140 128 129 140 145 145 139 133 129 126 124 126 131 139 165 195 205 204 196 193 200 204 201 198 198 202 205 200 199 205 204 201 202 204 204 202 200 203 206 208 215 222 230 241 247 245 245 258 259 256
292 242 153 308 16 25 237 159 170 135 164 158 108 14 318 330 201 161 173 175 149 145 153 165 163 163 163 152 150 154 152 151 148 145 146 148 147 146 142 143 144 142 143 144 146 146 143 143 133 131 137 139 142 145 140 132 126 121 122 122 117 115 126 171 196 196 193 193 193 189 178 177 186 193 194 198 204 204 200 200 204 208 209 208 204 205 211 218 228 237 241 245 246 247 261 258 258
295 327 86 342 14 339 260 245 180 144 169 152 109 349 286 270 251 177 158 176 158 149 161 167 164 166 165 157 155 160 158 156 153 150 150 148 148 149 145 147 152 149 148 151 152 147 146 150 141 135 138 132 128 138 138 131 127 123 126 133 130 120 105 114 152 171 182 190 197 199 189 181 177 174 182 198 209 209 207 204 205 209 212 213 211 209 213 219 230 240 241 245 247 247 254 255 262
329 346 13 28 11 287 273 248 170 180 212 135 116 195 253 262 269 248 158 169 166 161 169 169 168 172 168 165 161 164 165 162 159 153 152 152 151 154 152 152 157 158 157 158 158 153 152 157 153 143 142 136 125 130 132 128 131 133 134 142 137 128 114 108 122 133 137 146 165 183 188 181 171 168 172 194 216 215 212 206 205 212 212 213 216 215 218 218 224 236 241 245 249 251 255 260 263
7 24 327 346 218 267 299 298 179 190 265 124 128 189 257 260 266 269 176 166 174 172 176 172 172 173 167 170 164 162 166 164 160 155 155 155 157 161 159 158 164 166 166 164 161 157 154 159 162 153 145 143 135 131 133 133 142 140 132 135 135 132 129 124 140 143 130 120 116 116 120 132 145 155 157 183 214 218 212 203 202 210 210 212 216 218 223 219 218 229 237 244 252 252 256 264 259
357 81 263 280 255 293 320 311 224 193 152 163 169 175 263 259 247 272 244 178 178 171 178 178 173 173 168 168 165 161 164 164 162 160 159 159 164 168 165 165 170 172 172 171 167 161 156 156 164 163 155 151 143 132 128 132 142 138 124 124 132 139 144 134 144 152 144 127 115 110 107 107 128 148 148 176 206 214 208 200 204 210 208 214 218 215 220 221 219 226 233 244 251 252 256 261 252
323 9 326 258 241 285 300 303 273 188 157 193 197 185 220 240 240 276 272 196 181 169 175 178 172 175 171 165 169 168 167 169 169 169 166 165 169 173 173 172 173 176 177 176 173 165 158 156 159 160 159 157 146 130 120 123 132 132 125 126 133 133 124 117 129 141 142 133 123 119 117 107 107 120 119 135 196 224 238 224 216 214 207 212 223 218 216 219 220 227 235 244 247 248 256 258 250
260 292 1 301 271 233 262 285 273 178 173 186 185 207 229 251 288 293 272 187 163 161 168 172 173 177 178 170 173 175 172 176 177 175 172 169 171 175 176 174 175 176 177 176 173 167 158 153 150 148 152 153 145 134 130 130 134 135 129 127 135 131 118 116 123 131 135 136 131 119 116 109 95 96 102 85 138 231 267 254 244 240 217 208 219 222 218 215 216 225 233 239 239 241 254 255 238
199 222 160 224 286 285 260 268 281 187 172 174 175 205 223 245 287 282 277 264 137 151 158 171 181 181 182 177 178 179 177 184 182 177 174 171 174 176 175 173 174 176 177 175 172 169 160 154 152 149 149 150 150 150 149 148 150 150 143 132 134 137 132 125 123 124 126 133 148 133 120 116 107 106 107 74 38 52 40 6 267 256 231 221 223 224 221 216 214 226 235 236 234 236 251 255 244
169 115 125 220 253 305 280 281 318 329 142 118 179 216 249 254 277 271 275 311 193 181 164 175 189 186 185 182 183 183 184 187 179 176 176 174 175 175 172 171 172 174 175 174 172 171 165 159 159 156 154 156 161 166 166 164 159 156 155 146 140 146 148 141 132 128 129 151 184 175 135 114 118 127 117 89 47 27 51 56 59 60 25 245 244 231 225 222 217 226 237 240 235 234 244 248 253
119 92 19 299 287 302 294 299 327 5 106 343 16 38 310 288 282 287 298 307 246 230 191 184 191 191 192 188 186 186 186 178 165 171 174 174 176 174 171 170 172 174 175 176 175 172 170 167 163 160 160 162 167 173 172 168 160 156 159 154 151 154 150 144 137 126 122 143 164 164 146 128 127 129 118 111 91 19 22 47 59 61 59 21 318 285 241 239 236 239 247 253 248 237 241 245 252
92 88 46 308 283 295 309 318 331 13 84 305 1 41 298 283 268 264 271 256 249 233 209 201 191 190 196 191 190 187 179 163 159 169 172 175 179 176 171 172 176 177 176 177 177 174 173 174 170 164 165 165 167 172 171 169 163 162 163 155 152 154 148 149 142 130 120 119 125 132 142 164 178 166 147 128 106 68 56 60 80 85 75 58 26 18 9 353 334 315 298 286 280 262 254 251 249
90 98 93 281 281 73 318 309 329 2 57 179 43 18 295 291 299 263 225 219 254 264 242 235 197 192 200 194 190 186 172 162 167 172 174 178 180 178 176 177 178 176 176 178 178 177 178 180 177 172 171 169 168 173 179 178 167 163 162 152 150 152 150 152 145 142 139 125 127 124 80 286 270 217 201 166 100 93 87 84 93 101 91 67 33 21 20 23 17 4 344 317 298 282 272 264 256
293 161 152 232 274 212 195 266 326 354 350 80 76 17 318 309 318 291 272 207 262 275 264 264 237 209 209 198 190 188 174 167 171 173 174 176 182 185 183 181 178 176 178 180 180 180 182 183 181 178 176 174 172 174 181 180 168 160 158 152 150 152 155 159 157 161 171 168 167 161 119 1 44 95 177 183 131 107 107 99 102 107 104 93 1 355 4 16 20 17 5 337 308 292 289 284 276
306 246 198 210 242 243 228 315 21 28 342 310 66 36 298 310 310 272 283 321 299 263 232 249 247 216 194 194 193 195 186 177 172 171 175 179 187 189 184 180 177 179 183 183 183 184 185 185 185 182 180 177 175 176 178 178 172 169 168 165 161 161 166 175 176 174 178 179 182 178 130 96 74 78 121 172 189 175 148 126 140 133 142 208 274 293 313 338 349 4 8 356 330 307 295 288 288
299 248 202 202 221 235 260 98 94 100 253 283 49 140 254 307 300 259 269 298 292 279 233 240 247 216 182 195 200 194 184 179 175 171 175 181 187 186 183 182 181 183 186 185 185 188 188 188 188 188 185 181 180 180 181 182 180 179 182 183 180 175 176 181 186 183 180 184 186 176 137 107 88 78 85 116 177 215 235 258 274 275 261 257 270 280 292 309 316 328 345 355 357 344 316 291 291
235 242 196 211 231 207 200 143 147 196 229 316 4 122 226 285 267 260 277 297 292 288 266 246 245 226 200 202 203 191 175 172 171 172 177 183 187 186 184 186 187 187 186 185 187 190 190 190 191 192 190 187 186 187 189 191 190 188 189 190 188 187 185 183 189 188 186 191 189 176 157 130 110 93 82 83 102 141 169 191 269 288 281 272 268 273 284 294 306 313 319 328 340 356 355 327 309
242 237 193 199 187 173 155 114 133 186 68 324 313 39 231 273 275 282 293 283 285 285 274 256 242 227 210 205 204 193 179 172 171 174 181 187 189 188 186 186 188 188 186 187 190 192 193 192 192 193 193 192 191 193 194 196 196 192 189 189 189 191 191 189 192 192 189 189 184 178 172 162 147 123 110 93 92 105 111 107 93 76 44 338 290 285 290 293 300 305 311 319 321 327 339 340 333
244 206 168 66 93 121 104 103 110 45 48 273 269 341 122 272 284 300 311 271 272 277 272 257 238 227 213 203 204 200 181 169 175 179 181 187 190 190 186 184 186 188 189 189 191 192 193 193 193 194 194 195 194 196 198 198 197 194 190 189 190 192 194 194 194 194 194 192 188 187 180 176 186 186 173 149 122 112 106 104 91 78 66 41 0 330 321 315 312 311 314 317 319 320 318 322 328
211 138 136 17 17 23 33 70 84 58 341 262 249 194 148 282 286 264 244 249 267 279 285 276 243 223 216 204 202 208 192 167 173 182 184 188 191 188 183 181 184 188 189 189 191 193 193 193 195 196 196 196 197 198 201 200 199 198 194 193 195 197 197 195 192 192 196 199 200 199 193 190 195 200 212 219 209 213 186 129 40 33 25 8 353 343 336 326 317 314 316 317 321 325 322 320 319
84 99 111 51 339 2 19 357 39 79 258 263 259 167 135 215 271 256 248 262 276 270 273 285 259 215 217 211 203 211 206 177 164 176 185 185 184 181 179 181 183 186 188 190 191 193 193 194 196 196 196 197 198 199 201 202 201 201 200 199 202 200 198 197 196 196 200 204 205 204 199 198 201 205 212 221 229 240 259 277 292 312 326 327 324 325 321 315 311 307 308 311 316 321 323 324 322
80 86 79 85 327 5 12 314 334 212 250 259 256 124 136 232 254 257 262 271 285 279 266 275 253 209 210 213 211 215 212 183 159 166 178 179 176 175 178 182 183 186 189 191 192 192 191 193 195 196 197 197 198 199 201 203 204 205 203 203 206 204 202 203 203 205 208 208 209 210 206 203 206 211 213 218 226 233 246 260 271 286 303 313 315 315 310 304 303 302 304 306 309 313 316 318 320
128 144 118 123 118 60 290 275 286 257 262 260 242 195 234 286 263 241 242 257 276 286 284 281 258 224 218 218 210 212 214 191 165 164 170 174 177 178 181 184 185 190 193 192 192 192 191 193 196 198 200 198 198 199 201 204 206 208 207 206 209 209 209 210 210 213 215 212 212 215 215 213 213 216 218 223 230 230 230 235 247 268 289 302 303 304 305 305 305 306 309 311 310 311 311 314 316
181 168 134 140 147 148 211 226 214 245 268 278 285 243 199 214 257 257 267 298 313 334 339 338 329 311 295 288 260 198 210 191 167 167 171 176 180 182 184 186 189 193 195 193 192 192 193 195 198 201 201 199 198 200 201 204 207 209 209 210 213 214 214 214 215 219 220 215 214 216 219 219 219 219 222 228 230 225 224 232 251 270 282 289 296 303 307 309 312 313 315 316 316 315 312 313 316
248 144 104 143 182 162 182 197 186 190 259 291 291 247 211 201 271 307 358 7 16 32 27 18 4 1 17 12 6 2 269 201 176 174 175 179 182 184 186 188 193 195 194 193 192 192 194 197 199 201 202 200 199 201 202 204 207 208 209 212 214 216 217 216 217 219 219 216 216 218 220 220 218 218 219 221 222 225 236 250 263 272 279 286 296 305 308 308 308 309 309 311 314 316 315 314 314
254 130 159 227 170 139 165 260 222 102 200 272 252 245 287 330 314 332 29 32 30 40 37 32 27 25 32 32 26 19 7 1 340 197 191 189 183 186 190 191 193 194 192 193 194 194 196 198 199 200 202 201 200 202 204 204 205 206 208 211 214 216 216 216 216 216 215 216 217 218 218 216 215 217 218 219 224 234 246 257 265 271 279 288 295 298 300 301 301 302 302 301 307 313 313 312 313
92 204 229 241 61 84 118 268 348 33 239 275 296 237 274 341 298 331 30 33 30 41 42 38 39 40 37 29 33 33 22 12 7 5 279 226 199 192 193 195 197 194 193 194 195 196 197 198 199 199 200 202 201 203 204 205 204 205 207 210 214 216 217 218 218 217 216 214 214 215 215 212 212 215 219 222 229 238 248 257 266 274 279 282 284 287 293 298 297 298 300 300 303 309 308 307 311
79 226 255 230 68 341 85 157 254 261 234 280 310 279 256 199 225 339 32 36 36 44 47 40 33 38 37 25 29 36 34 23 6 6 10 331 244 221 205 199 199 198 196 196 195 196 197 198 199 199 201 204 203 203 204 205 205 205 208 212 215 218 219 221 220 219 217 214 212 212 211 209 210 214 218 222 229 236 246 256 264 272 275 275 277 283 292 296 293 292 294 296 299 301 302 304 309
31 11 353 31 155 176 177 178 174 175 206 249 304 315 286 229 209 129 78 70 72 66 60 48 29 28 32 25 23 28 35 37 13 358 13 46 39 285 249 220 206 200 198 197 195 195 197 198 199 200 202 203 202 202 203 205 206 207 210 213 216 219 221 221 220 218 217 216 214 212 211 211 212 215 219 223 229 236 246 258 265 268 267 268 274 284 292 292 288 287 287 288 291 295 298 302 306
2 351 337 332 321 217 202 286 130 135 161 187 220 281 267 249 213 138 110 99 102 99 89 72 43 28 24 22 21 17 17 21 20 13 6 18 46 23 281 267 246 216 203 199 196 196 197 197 198 199 201 201 201 202 202 205 207 209 211 213 216 218 220 220 220 219 219 217 215 214 214 215 217 220 223 227 232 241 253 262 263 260 259 265 277 285 290 288 285 284 283 284 288 292 297 301 305
191 226 266 268 266 293 352 292 290 109 142 168 171 230 258 251 205 147 124 115 119 112 99 90 68 43 25 17 18 11 7 6 7 17 15 1 360 360 244 231 253 240 216 204 201 200 197 197 198 199 200 201 202 203 203 206 208 210 212 214 215 217 218 219 219 218 218 217 215 215 215 217 220 223 227 231 238 249 260 264 263 264 267 274 282 286 287 287 285 283 282 285 291 295 298 300 303
Height
781 781 781 781 780 780 781 782 793 794 796 806 803 797 786 773 771 769 771 768 769 768 758 755 755 754 759 770 776 777 780 782 787 795 799 790 783 787 789 790 792 792 794 794 795 796 797 798 798 799 800 800 802 803 804 805 807 807 808 810 810 811 812 813 814 814 814 814 815 815 816 816 817 817 818 819 820 820 820 820 821 822 823 824 825 825 826 827 827 828 828 828 828 828 829 829 830
780 781 780 781 779 781 784 783 798 804 803 807 800 794 779 769 770 769 768 768 771 767 757 756 757 758 761 766 767 772 784 783 779 782 785 784 785 789 789 791 792 793 794 795 796 797 798 798 799 800 800 801 802 803 805 806 807 808 809 810 811 812 812 814 814 815 815 816 816 816 816 817 818 818 819 820 820 821 821 821 822 823 824 825 826 826 827 828 828 829 829 829 829 829 830 830 831
780 781 780 781 779 782 785 786 800 808 809 807 797 785 773 771 770 767 766 765 765 760 756 755 757 762 764 769 769 775 790 786 779 781 783 785 786 789 790 791 792 794 794 795 796 797 798 799 800 800 801 802 803 804 805 807 808 809 810 811 812 812 813 814 815 816 816 817 817 817 817 818 819 819 820 820 821 822 822 822 823 824 825 826 827 827 828 828 829 829 830 830 830 830 830 831 832
780 780 780 780 782 785 788 793 800 804 809 806 793 777 769 770 765 766 766 762 760 756 757 756 761 764 763 776 777 779 789 786 782 782 784 787 787 789 790 792 793 794 795 796 797 798 799 800 801 801 802 802 803 805 806 807 808 809 810 811 812 813 814 815 816 817 817 818 818 818 818 819 819 820 821 821 822 822 823 823 824 825 825 826 827 828 828 829 830 830 831 831 831 832 832 832 833
780 780 780 780 785 788 790 797 798 801 804 798 790 776 767 766 764 767 765 762 758 755 757 756 766 767 765 775 776 782 789 786 785 782 785 788 788 790 790 792 794 795 796 797 798 799 800 800 801 802 802 803 804 805 806 808 809 810 811 812 813 813 815 816 817 817 818 819 819 819 819 820 820 821 821 822 822 823 824 824 825 826 826 827 828 829 829 830 830 831 832 832 833 833 833 834 835
780 780 780 780 784 785 793 801 799 800 794 787 788 777 766 763 765 766 764 763 758 755 755 758 768 770 774 777 775 782 784 783 786 783 784 787 789 790 791 793 794 796 797 797 799 799 800 801 802 803 803 804 805 805 807 808 809 810 811 812 813 814 815 816 818 818 819 820 820 820 821 821 821 821 822 822 823 823 825 825 826 826 827 828 828 829 829 830 831 832 833 833 834 835 835 835 836
780 781 782 784 785 786 799 804 799 799 788 781 783 775 766 762 763 764 763 765 764 760 757 762 764 770 783 781 780 783 780 781 783 784 785 787 790 791 792 794 794 796 797 798 799 800 801 802 802 803 804 805 805 806 807 808 809 810 811 812 813 814 815 817 818 819 820 820 821 821 821 822 822 822 823 823 824 824 825 826 827 827 828 829 829 830 830 831 832 833 834 834 835 836 836 836 837
780 783 784 788 792 792 800 800 796 796 785 777 774 770 764 760 762 763 763 764 767 765 762 765 759 774 790 782 787 788 780 783 782 785 787 787 790 791 793 794 795 796 797 799 800 801 801 802 803 804 804 805 806 807 808 808 809 810 811 812 814 815 816 817 818 819 820 820 821 821 822 822 823 823 823 824 824 825 825 826 827 828 828 830 831 831 831 832 832 834 835 835 836 837 837 837 838
780 783 785 791 797 797 800 798 794 789 781 775 770 766 763 758 759 762 764 764 766 766 767 765 757 776 793 786 792 789 783 786 784 787 787 789 791 791 794 794 795 796 798 799 800 801 801 803 803 804 805 806 807 807 808 809 810 810 811 812 814 815 816 817 818 819 820 820 821 822 822 823 823 823 824 824 825 825 826 827 827 828 829 830 831 832 833 833 833 834 835 836 837 837 837 838 839
782 784 787 792 798 802 804 800 794 786 777 772 767 763 761 756 755 758 762 766 765 767 769 762 760 777 789 791 794 788 786 787 785 789 789 790 791 792 794 795 796 796 798 799 800 801 802 804 804 805 806 807 808 808 808 809 810 810 811 812 814 815 816 818 818 819 820 820 821 822 823 823 823 824 825 825 825 826 827 828 827 828 829 831 832 833 833 833 834 835 836 836 837 838 838 838 839
786 785 786 795 801 805 804 799 793 786 777 771 766 757 753 752 755 759 760 766 764 766 768 762 770 779 784 792 793 788 787 787 787 789 790 791 792 793 794 795 796 796 798 799 800 801 802 804 805 806 807 808 808 808 809 809 810 810 811 812 814 815 817 818 819 819 820 820 821 822 823 823 824 824 825 826 826 826 827 828 828 829 830 831 832 833 834 834 835 835 836 837 838 838 838 839 839
789 788 788 799 803 801 797 796 792 785 777 772 766 752 745 747 754 759 758 765 764 767 764 760 771 774 784 795 792 789 787 788 788 789 791 792 792 794 794 795 796 797 799 799 801 802 803 804 805 807 807 808 808 809 809 809 810 811 812 813 814 816 817 818 819 819 820 820 821 822 823 823 824 825 825 826 826 826 827 828 829 829 830 831 832 834 835 835 835 836 837 837 838 839 839 839 840
789 788 790 798 797 795 793 794 789 785 779 769 761 748 741 746 753 756 756 763 764 767 763 757 763 767 784 795 789 788 787 788 788 789 791 792 793 794 795 795 796 798 799 800 801 802 804 805 806 807 808 809 809 809 810 810 811 811 813 813 814 816 816 818 818 819 820 820 822 822 823 824 824 825 826 826 826 827 827 828 829 829 830 832 832 834 835 835 836 836 837 838 839 839 839 840 840
785 784 788 795 793 792 791 791 787 785 779 761 755 746 741 746 750 753 755 765 767 763 760 755 757 768 785 793 793 791 787 788 788 790 791 792 794 793 795 796 797 798 799 801 802 803 804 805 806 807 808 809 809 810 811 811 811 812 813 814 815 816 817 818 819 819 820 821 822 823 824 824 825 825 825 826 826 827 827 828 829 829 830 832 832 833 835 835 836 837 837 838 839 840 840 840 841
780 780 784 792 793 792 789 788 784 785 777 758 752 745 745 747 747 753 753 761 768 759 757 759 755 768 784 787 792 789 785 788 788 790 792 793 794 794 796 796 798 799 800 802 802 804 804 806 807 808 809 809 810 810 811 811 812 813 814 815 815 816 817 818 819 820 820 821 822 823 824 824 825 825 826 826 826 827 827 828 829 829 830 832 832 833 835 835 836 837 837 838 839 840 840 840 841
776 779 785 792 794 795 791 784 781 783 773 757 752 744 750 754 746 754 752 749 762 760 758 764 757 763 775 775 779 781 783 786 788 790 791 793 795 796 797 797 799 799 801 802 803 804 804 806 807 808 809 809 810 810 811 812 812 813 814 815 815 816 817 818 819 820 821 821 822 823 824 824 825 826 826 826 827 827 827 828 828 829 830 832 832 833 834 835 836 837 837 839 840 840 841 840 841
774 780 790 795 795 795 789 781 778 778 769 758 753 746 753 760 752 753 752 748 759 764 763 765 760 760 769 771 773 777 782 785 787 790 791 794 795 796 798 799 800 800 802 802 803 804 805 806 807 808 809 809 810 810 811 812 812 813 814 815 816 816 817 818 819 820 821 821 822 823 824 824 825 826 826 826 827 827 827 828 828 828 830 832 833 833 834 835 836 836 837 839 840 840 841 841 841
777 784 792 796 793 789 782 777 773 770 767 760 755 751 753 762 759 754 757 760 763 767 768 766 765 766 770 773 775 779 782 785 787 789 792 794 795 797 798 799 800 801 802 803 804 804 805 806 807 808 809 809 810 811 811 812 813 813 814 815 816 817 817 818 819 820 821 821 822 823 824 824 825 826 826 826 826 827 828 828 828 828 830 832 833 833 834 835 836 836 837 839 840 840 841 841 841
777 784 791 792 785 780 774 771 768 766 766 759 754 753 754 758 758 755 763 772 768 772 775 770 773 776 777 778 780 782 783 785 787 789 791 793 794 796 797 799 800 801 802 803 804 805 806 806 807 808 808 809 810 811 812 812 813 813 814 815 816 817 818 818 819 820 821 822 822 823 824 824 825 825 826 826 826 827 828 828 829 829 830 831 833 833 834 835 836 837 838 839 840 840 841 841 841
775 781 789 785 776 774 769 766 764 763 762 758 754 752 753 756 754 755 766 774 770 774 777 775 779 781 782 782 781 783 784 786 788 789 791 793 794 795 797 799 800 801 802 803 804 805 806 807 807 808 808 809 810 810 811 812 813 813 814 815 816 817 817 818 819 820 821 822 822 823 824 824 825 825 826 826 826 827 827 828 829 829 830 831 832 833 834 835 836 837 838 839 840 840 840 841 841
775 776 782 777 772 773 767 763 763 761 757 756 755 753 755 754 752 757 765 774 777 773 769 769 775 777 780 782 781 783 785 787 788 789 791 793 794 796 797 798 800 801 802 803 804 806 807 807 808 808 809 809 810 810 811 812 813 813 814 815 816 817 817 818 819 819 820 821 822 822 823 824 825 825 825 826 826 827 827 828 828 829 830 831 832 832 833 834 835 837 838 839 840 840 841 841 841
776 773 772 770 769 771 765 761 761 759 756 756 756 755 755 752 755 761 761 770 775 770 764 762 765 769 773 777 780 782 784 786 788 789 791 793 794 796 797 798 800 801 802 804 805 806 807 808 808 808 809 810 810 810 810 812 812 813 814 815 816 816 817 817 818 819 820 821 821 822 823 823 824 825 825 825 826 827 827 827 828 829 830 831 831 832 832 834 835 836 838 839 840 840 841 841 842
777 773 768 767 767 768 763 759 759 757 757 759 758 756 755 756 762 763 760 763 764 762 762 761 761 764 767 773 777 781 783 785 787 788 790 792 794 795 797 798 800 801 802 804 805 806 807 808 809 809 810 810 810 810 811 812 812 813 814 815 815 816 817 817 818 819 820 820 821 821 822 823 823 824 824 825 825 826 827 827 827 828 830 831 832 832 832 833 835 836 837 839 840 840 841 841 842
777 775 767 765 765 764 762 759 757 755 757 757 756 756 758 762 765 764 762 761 759 760 762 763 764 766 770 774 778 781 783 785 787 789 790 792 794 795 797 798 800 801 802 804 805 806 807 808 809 809 810 810 810 811 811 812 813 813 814 815 815 816 816 817 818 819 819 820 820 821 822 822 823 823 824 824 825 825 826 827 827 828 829 830 832 833 833 833 835 836 837 838 839 840 841 841 842
773 772 766 762 761 760 759 758 756 754 756 754 754 758 762 763 763 766 767 763 759 761 765 767 769 772 774 777 780 783 784 787 788 790 791 792 794 796 798 799 800 801 802 804 806 807 808 808 809 809 810 810 811 811 812 812 813 813 814 815 815 816 816 816 817 818 819 819 820 821 821 822 822 823 823 823 824 824 826 826 827 828 828 830 831 833 833 833 835 836 837 838 839 840 841 841 842
768 765 762 760 759 757 757 757 755 755 755 755 757 760 761 760 762 770 771 765 761 762 766 769 771 774 777 779 781 783 785 787 789 790 792 793 794 796 798 800 801 802 803 804 806 807 808 809 809 809 810 811 811 812 812 813 813 814 814 815 815 816 816 816 816 817 818 819 819 820 821 821 821 822 822 823 823 824 825 826 826 827 828 829 830 831 832 833 834 835 837 838 839 840 840 841 841
761 760 759 758 758 756 756 756 755 755 756 756 761 763 761 758 764 776 775 766 763 765 769 770 771 774 776 779 780 781 784 785 787 789 791 793 795 796 798 800 801 802 803 805 806 807 808 809 809 810 810 811 812 812 813 813 814 814 814 815 815 816 816 815 816 817 818 819 819 820 820 820 821 821 822 822 823 824 824 825 826 827 828 828 829 830 831 832 833 834 836 837 838 839 839 840 841
758 756 758 758 758 757 757 757 756 756 758 757 759 763 762 759 765 774 773 768 765 767 773 772 772 774 774 778 780 781 783 784 786 787 790 792 794 795 797 799 801 802 804 805 806 807 808 809 810 810 811 812 812 813 813 814 814 815 815 815 816 816 816 815 816 817 818 818 819 819 820 820 820 820 821 822 823 823 824 825 826 827 828 829 829 830 831 831 832 833 834 835 837 838 838 839 839
757 754 759 760 758 760 759 758 757 756 759 755 757 769 770 765 767 770 770 769 766 767 773 774 773 774 775 778 780 781 783 784 786 786 788 791 793 795 797 799 800 802 804 805 807 808 809 810 811 811 812 812 813 813 814 814 815 815 815 816 816 816 815 815 816 816 817 818 818 819 819 820 820 820 821 821 822 822 823 824 825 826 827 828 829 829 830 831 832 832 833 834 835 836 836 837 838
758 756 759 762 765 765 759 757 757 756 758 752 760 781 779 768 765 767 770 770 769 771 772 774 775 775 776 778 780 782 782 783 784 786 788 790 793 794 796 799 800 801 804 805 807 808 809 810 811 812 813 813 813 814 814 815 815 815 816 816 816 816 816 816 816 816 817 818 818 818 819 819 820 820 821 821 821 821 821 822 823 825 826 827 827 829 830 831 832 832 832 833 834 835 835 835 836
760 761 762 768 775 770 757 758 760 759 760 752 762 784 780 768 765 764 768 770 771 773 772 774 775 775 777 778 780 781 782 783 783 785 787 789 792 794 796 798 800 801 803 805 807 808 809 811 812 813 813 814 814 814 815 815 816 816 816 816 816 816 816 816 816 817 817 818 818 818 818 819 820 820 821 821 820 820 821 822 822 824 824 825 826 828 829 830 831 831 831 832 833 834 834 834 834
764 771 775 775 777 772 760 758 760 760 761 757 765 782 778 770 766 761 764 768 770 772 773 773 774 774 777 779 780 781 783 784 784 784 786 787 790 792 794 797 799 801 802 804 806 807 809 810 812 813 814 814 814 815 816 816 816 816 816 816 816 816 816 816 817 817 818 818 818 818 818 819 820 820 820 820 819 820 821 822 822 823 824 824 826 827 828 828 829 830 831 831 831 832 833 833 832
772 777 782 779 778 778 770 762 757 757 761 762 765 775 776 770 764 759 761 764 767 770 773 773 774 774 776 779 780 781 783 784 785 785 785 786 788 790 792 794 797 799 801 803 804 806 808 810 811 812 813 814 815 815 816 816 816 816 816 816 817 817 817 817 817 818 819 819 819 819 819 819 820 820 820 820 820 820 821 822 822 822 823 824 824 825 826 827 828 829 829 830 831 831 832 832 831
781 781 782 782 781 782 779 768 759 756 761 764 764 767 770 766 761 760 760 759 762 767 770 773 774 775 776 778 780 780 781 783 784 784 784 785 786 788 790 792 795 797 800 802 803 805 807 809 810 811 813 814 815 816 816 816 816 817 817 817 817 817 817 817 817 819 819 820 820 820 820 820 820 820 820 820 820 821 821 821 822 822 822 823 823 824 825 826 827 827 828 829 830 830 831 831 831
786 785 784 784 781 781 781 773 762 758 759 764 768 768 767 765 763 761 760 758 759 764 768 771 773 774 775 777 778 779 779 780 781 781 782 783 784 786 789 791 794 796 799 801 803 804 806 808 809 811 812 813 815 816 816 817 817 817 818 818 818 818 818 818 819 819 820 820 820 820 820 820 820 820 820 821 821 821 821 821 822 822 823 823 823 823 823 824 825 825 825 826 828 830 830 831 831
783 783 783 785 784 780 777 771 762 759 761 766 769 768 766 766 763 760 761 760 759 762 767 770 772 772 773 775 776 776 778 778 778 779 780 782 783 785 787 790 793 796 798 800 802 803 804 806 807 809 811 813 814 815 816 817 817 817 818 818 818 818 818 819 820 820 820 820 820 820 820 821 821 821 821 821 821 821 821 821 822 822 823 823 823 823 823 823 824 823 824 825 827 829 830 830 831
779 780 782 784 786 782 773 769 763 757 763 772 771 768 769 769 766 762 762 762 760 761 766 770 770 770 771 772 773 774 775 774 775 778 780 781 783 784 787 790 793 796 798 799 800 802 803 804 805 807 809 811 813 814 816 816 817 817 818 818 818 818 819 819 820 820 821 820 820 820 820 821 821 821 821 821 821 821 822 822 822 822 822 822 822 823 823 822 823 823 824 825 827 829 829 829 830
776 779 781 782 784 782 773 769 765 758 764 775 774 772 773 770 768 766 763 763 763 762 765 768 768 768 768 769 770 772 772 774 777 780 782 783 784 785 786 789 791 793 795 797 799 801 803 804 804 805 807 809 812 814 815 816 816 817 817 818 818 819 819 819 820 820 821 821 820 820 820 820 821 821 821 820 821 821 821 822 822 822 822 821 821 822 823 823 823 824 824 824 827 828 828 827 829
778 780 782 783 783 780 774 768 765 762 766 775 775 775 774 769 768 770 767 763 761 760 761 764 765 766 767 767 769 770 773 776 778 780 782 783 783 784 786 787 789 791 793 796 798 799 802 803 805 806 807 808 810 813 815 816 816 817 817 818 818 819 819 820 820 820 821 821 821 821 820 820 820 821 821 820 821 821 821 822 822 823 822 822 821 822 823 823 824 824 824 824 826 828 827 826 828
779 780 783 785 782 783 782 773 766 765 769 775 775 775 775 769 766 766 765 764 761 759 759 760 763 764 763 763 764 767 771 775 777 779 781 782 783 784 785 786 788 791 793 795 797 798 800 802 804 805 806 808 809 812 814 815 816 817 817 818 818 819 819 820 820 820 821 821 821 821 820 820 820 820 820 820 821 821 822 822 823 823 823 822 822 822 823 824 825 825 825 825 825 827 827 827 827
780 778 781 783 779 780 782 776 770 769 771 771 772 781 779 770 769 766 762 764 764 761 760 759 760 761 761 761 762 764 767 770 773 777 779 781 782 782 782 784 786 789 791 793 794 796 798 800 803 804 806 807 809 811 813 814 815 816 817 818 819 819 819 820 820 820 820 821 821 821 821 820 819 819 820 820 821 821 822 822 823 823 823 823 823 823 823 824 825 826 826 826 826 826 827 826 826
782 777 774 775 775 777 779 778 778 782 783 773 774 793 791 775 774 772 765 766 764 762 763 760 756 758 761 762 762 764 765 766 768 771 775 777 778 779 781 783 786 787 789 790 792 794 796 799 802 804 805 807 808 810 812 813 814 815 816 817 818 818 819 819 819 820 820 821 821 821 821 820 820 819 820 820 821 821 822 823 823 824 824 824 823 823 823 824 825 825 826 826 826 826 826 826 826
784 775 768 769 772 776 780 781 786 791 792 781 778 793 797 785 776 769 765 766 763 762 764 760 755 756 758 759 758 760 763 765 766 768 771 773 775 778 781 783 784 785 787 789 791 793 795 798 800 803 804 806 807 808 811 812 813 815 815 816 817 817 818 818 819 820 820 820 821 821 821 820 820 820 820 820 821 821 822 822 823 824 824 824 824 824 824 824 824 825 826 826 826 826 826 826 826
781 769 763 768 771 775 778 780 786 788 786 785 782 786 795 793 779 769 767 768 765 762 762 759 755 755 755 754 754 756 760 762 765 768 770 771 772 774 777 779 781 783 785 788 790 792 794 796 799 801 803 805 806 807 809 811 812 814 815 816 816 817 817 818 819 819 820 820 821 821 821 821 820 820 820 821 821 821 822 823 823 823 824 824 824 824 825 825 825 825 825 826 826 826 826 826 826
772 763 762 766 769 773 773 775 782 784 786 791 786 784 795 795 779 771 772 771 768 761 756 754 753 752 752 752 752 753 756 758 760 764 766 767 768 769 772 775 778 781 784 786 787 789 792 794 797 799 802 803 804 806 808 810 811 813 814 815 816 817 818 818 818 819 819 820 820 821 821 821 821 821 821 821 821 822 822 823 823 824 824 824 824 825 825 825 825 825 825 825 825 826 826 826 826
764 761 764 765 768 772 772 775 778 783 793 795 787 785 796 795 778 772 774 771 766 759 753 751 749 748 748 749 750 750 753 756 757 759 761 762 764 766 769 773 777 780 782 784 786 789 790 792 795 797 799 801 802 804 806 808 810 812 813 814 815 816 817 818 818 819 819 819 820 820 821 821 821 821 821 821 822 822 822 823 823 824 824 825 825 825 825 825 825 825 825 825 825 825 825 825 825
761 764 768 769 772 772 774 778 779 790 800 792 785 786 794 797 783 771 771 765 759 758 754 748 746 746 744 745 747 747 749 753 755 757 758 759 762 766 770 774 777 779 782 785 787 788 789 791 793 795 796 799 800 802 804 807 809 810 811 813 814 815 816 817 817 818 818 819 819 820 820 821 822 822 822 822 822 822 822 823 823 824 824 824 825 825 825 824 824 824 824 824 824 824 825 825 824
763 769 772 777 783 780 782 786 787 800 804 787 783 789 795 801 786 768 765 758 755 759 754 744 742 744 744 743 744 744 744 748 752 755 757 759 763 768 772 774 776 779 781 783 785 786 787 789 791 792 794 796 797 799 802 804 806 808 810 811 812 813 814 815 816 817 817 818 818 819 820 821 821 822 822 822 822 822 822 823 823 823 823 824 824 824 824 824 824 824 824 824 824 824 824 824 824
767 772 776 787 797 798 799 799 798 804 800 784 782 788 794 796 779 763 761 756 753 756 752 744 741 741 742 742 742 741 741 744 749 754 756 759 763 766 769 772 774 776 777 778 781 782 784 786 788 790 791 793 794 796 799 802 804 806 807 809 810 812 813 814 815 815 816 817 818 819 819 820 820 821 821 822 822 823 823 823 823 823 823 823 823 824 824 824 824 824 823 823 823 823 823 823 823
768 773 779 789 801 810 813 810 809 808 795 783 782 786 791 788 771 760 759 756 752 751 749 745 741 741 740 739 740 740 740 742 746 750 754 756 759 762 764 767 769 771 771 773 775 778 781 783 785 787 788 789 791 793 796 799 801 803 805 807 809 810 811 812 813 814 815 816 817 818 818 819 819 820 821 821 822 822 823 823 823 823 823 823 823 823 823 823 823 823 823 823 823 823 823 823 823
766 768 774 783 791 801 807 806 805 802 793 787 787 787 788 782 766 756 755 755 752 749 748 745 743 743 741 739 741 741 741 743 744 748 751 753 755 757 760 762 764 765 767 769 772 775 778 780 782 784 786 787 788 790 792 795 798 801 803 805 807 808 810 811 812 813 814 815 816 817 818 818 819 820 820 821 821 822 822 822 823 823 823 823 823 823 823 822 822 822 822 822 822 822 821 821 822
768 767 774 780 777 781 793 797 795 795 795 793 789 784 780 772 761 754 755 755 752 751 750 748 747 747 745 745 747 747 746 746 746 747 749 750 751 754 756 758 760 761 764 767 770 773 774 776 779 781 783 785 786 788 790 792 795 798 801 803 805 806 808 809 810 812 813 814 815 816 817 818 819 819 820 821 821 821 822 822 822 822 823 823 823 822 822 822 822 821 821 821 820 820 820 820 820
769 771 773 771 765 769 784 794 795 797 800 796 790 783 775 771 765 758 758 759 758 759 758 757 757 755 754 755 753 753 752 751 750 750 750 750 751 753 754 755 757 760 763 765 767 768 770 773 776 779 781 783 784 786 788 790 793 796 799 801 803 804 805 807 808 809 811 812 814 815 816 817 818 819 819 820 820 821 821 821 821 822 822 822 822 822 821 821 821 820 820 820 820 819 819 818 818
768 774 768 763 767 772 782 794 798 803 805 798 792 785 778 778 775 765 762 766 767 767 764 763 762 761 762 762 758 757 757 755 754 753 754 753 752 752 753 754 755 757 759 761 763 765 768 771 773 776 778 780 782 784 786 788 791 793 796 798 800 802 803 804 806 807 809 811 812 813 814 816 817 818 818 819 820 820 821 821 821 821 821 821 821 821 821 820 820 819 819 819 818 818 818 817 817
765 769 763 767 779 783 788 796 798 803 807 800 794 791 785 781 778 771 768 771 772 771 768 766 766 765 766 765 762 761 762 762 760 757 755 756 756 755 754 753 754 756 758 759 762 765 768 770 772 774 775 777 779 782 784 787 789 791 793 795 797 799 800 802 804 805 807 808 810 811 813 814 815 816 817 818 819 819 820 820 820 820 820 820 820 820 820 820 819 819 818 818 817 817 816 816 816
764 767 767 771 777 782 786 790 790 795 803 802 798 797 787 777 774 772 770 771 773 773 772 770 770 768 767 766 765 764 764 766 766 762 757 755 756 758 758 757 756 756 757 759 762 765 767 769 771 772 774 776 778 780 782 784 786 788 790 792 794 796 798 800 802 803 805 806 808 809 811 812 814 815 816 817 818 818 819 819 819 819 819 819 819 819 819 819 818 818 818 817 817 816 815 815 814
775 776 778 777 777 780 782 785 786 788 795 801 803 799 785 773 770 767 767 770 772 772 773 772 771 770 769 768 766 765 765 765 765 763 760 757 755 756 759 762 762 761 760 761 762 764 766 768 770 771 773 775 776 778 780 781 783 785 788 789 791 793 795 798 800 801 803 804 806 808 809 811 812 813 815 815 816 817 817 818 818 818 818 818 818 818 817 817 817 817 816 816 816 815 815 814 813
779 780 780 779 780 783 788 791 789 786 789 794 798 796 782 769 765 763 765 771 771 769 771 772 772 771 769 769 767 766 766 764 763 763 762 760 757 756 757 759 763 765 765 765 765 765 766 767 769 770 771 772 774 775 777 779 781 783 784 786 788 791 793 796 798 799 801 802 804 806 808 809 810 812 813 814 815 816 816 817 816 816 817 816 816 816 816 815 815 815 815 814 814 814 813 812 811